Flag for Aruba Weather past 2 weeks in Oranjestad, Aruba

Now
82 °F

Passing clouds.


Feels Like: 91 °F
Forecast: 81 / 90 °F
Wind: 21 mph from East

Location: Queen Beatrix Airport - Aruba

Current Time: Jul 28, 2014 at 10:34:54 PM

Latest Report: Jul 28, 2014 at 10:00 PM


Visibility: N/A

Pressure: 29.95 "Hg

Humidity: 84%

Dew point: 77 °F

Location of OranjestadLocation

Historic Weather in Oranjestad — Graph

°F

Oranjestad temperature yesterday

Maximum temperature yesterday: 88 °F (at 1:00 PM)
Minimum temperature yesterday: 77 °F (at 12:00 AM)
Average temperature yesterday: 82 °F

Past Weeks' High & Low Weather Summary

 TemperatureHumidityPressure
High91 °F (Jul 16, 12:00 PM)94% (Jul 26, 11:00 PM)30.01 "Hg (Jul 26, 11:00 PM)
Low77 °F (Jul 26, 11:00 PM)63% (Jul 14, 12:00 PM)29.80 "Hg (Jul 24, 4:00 PM)
Average84 °F78%29.92 "Hg
* Reported Jul 13 9:00 PM — Jul 28 9:00 PM, Oranjestad, Weather by CustomWeather, © 2014

Note: Actual official high and low records may vary slightly from our data, if they occured in-between our weather recording intervals... More about our weather records

Advertising

Oranjestad weather history for previous 24 hours

 ConditionsComfort  
Time TempWeatherWind HumidityBarometerVisibility
9:00 PM
Jul 28
82 °FPassing clouds.18 mph84%29.92 "HgN/A
8:00 PM82 °FPassing clouds.18 mph84%29.92 "HgN/A
7:00 PM82 °FPassing clouds.18 mph84%29.89 "HgN/A
6:00 PM84 °FPassing clouds.21 mph79%29.89 "HgN/A
4:00 PM88 °FPassing clouds.22 mph70%29.89 "HgN/A
3:00 PM88 °FPartly sunny.21 mph70%29.92 "HgN/A
2:00 PM86 °FPartly sunny.20 mph79%29.95 "HgN/A
1:00 PM82 °FRain showers. Partly sunny.18 mph89%29.98 "Hg3 mi
12:00 PM84 °FScattered showers. Partly sunny.15 mph84%29.98 "Hg5 mi
11:00 AM88 °FPartly sunny.17 mph70%29.98 "HgN/A
10:00 AM86 °FPartly sunny.18 mph75%30.01 "HgN/A
9:00 AM84 °FScattered clouds.21 mph79%29.98 "Hg6 mi
8:00 AM82 °FPartly sunny.15 mph84%29.98 "HgN/A
7:00 AM81 °FScattered clouds.15 mph89%29.98 "HgN/A
6:00 AM81 °FPassing clouds.12 mph89%29.95 "HgN/A
5:00 AM81 °FPassing clouds.15 mph84%29.95 "HgN/A
4:00 AM81 °FPassing clouds.15 mph89%29.95 "HgN/A
3:00 AM81 °FPassing clouds.15 mph89%29.98 "HgN/A
2:00 AM81 °FPassing clouds.16 mph89%29.98 "HgN/A
1:00 AM81 °FPassing clouds.17 mph89%29.98 "HgN/A
12:00 AM82 °FPassing clouds.16 mph84%30.01 "HgN/A
11:00 PM
Jul 27
82 °FPassing clouds.17 mph84%29.98 "HgN/A
10:00 PM82 °FPassing clouds.15 mph84%30.01 "HgN/A
Weather by CustomWeather, © 2014

See weather overviewHow to use our weather pages